Regional Weather Roundup
Issued by NWS Sterling, VA

Home | Current Version | Previous Version | Graphics & Text | Print | Product List | Glossary On
Versions: 1 2 3 4 5 6 7 8 9 10 11 12 13 14 15 16 17 18 19 20 21 22 23 24 25 26 27 28
000
ASUS41 KLWX 230310
RWRLWX

REGIONAL WEATHER ROUNDUP
NATIONAL WEATHER SERVICE BALTIMORE MD/WASHINGTON DC
1000 PM EST WED FEB 22 2017

Note: "FAIR" indicates few or no clouds below 12,000 feet
with no significant weather and/or obstructions to visibility.
 TC=TEMPERATURE CELSIUS

 * =Non NWS site. Station does not report precipitation (e.g. rain,
    snow, etc.), thunder, or fog.

DCZ001-MDZ009-015-VAZ040>042-051-053>054-230400-
WASHINGTON METRO

CITY           SKY/WX    TMP DP  RH WIND       PRES   REMARKS
WASHINGTON NAT MOCLDY    53  50  89 S8        29.91F
DULLES         CLOUDY    53  48  83 S5        29.90S
ANDREWS AFB    CLOUDY    53  50  91 S7        29.90S
FT BELVOIR     MOCLDY    49  45  86 CALM      29.91S
QUANTICO       CLOUDY    52  51  97 SW6       29.92F
COLLEGE PARK*  CLOUDY    46  43  87 CALM      29.91S
LEESBURG*      PTCLDY    54  50  87 MISG      29.91S
MANASSAS*      CLOUDY    54  51  90 S5        29.91S
GAITHERSBURG*  PTCLDY    52  43  71 CALM      29.94S

$$

MDZ006>007-011-014-230400-
BALTIMORE METRO

CITY           SKY/WX    TMP DP  RH WIND       PRES   REMARKS
BWI AIRPORT    CLOUDY    48  45  89 CALM      29.91S
MD SCIENCE CTR   N/A     52  44  74 MISG      29.92S
MARTIN STATE   CLEAR     45  45 100 CALM      29.94S
ANNAPOLIS      CLOUDY    50  48  93 SE3       29.91F
FORT MEADE*    CLOUDY    45  43  93 CALM      29.93F

$$

MDZ012-015-019>023-230400-
MARYLAND EASTERN SHORE

CITY           SKY/WX    TMP DP  RH WIND       PRES   REMARKS
OCEAN CITY     CLOUDY    53  50  89 SW6       29.95S
SALISBURY      CLOUDY    56  54  93 S7        29.94S
BAY BRIDGE AP* CLOUDY    50  48  93 SE6       29.92S FOG
CAMBRIDGE*     CLEAR     52  50  93 S7        29.94S
EASTON*        CLOUDY    53  51  92 S6        29.96F

$$

MDZ017>025-230400-
SOUTHERN MARYLAND

CITY           SKY/WX    TMP DP  RH WIND       PRES   REMARKS
PATUXENT RIVER CLOUDY    49  49 100 CALM      29.93S
ST INIGOES     CLOUDY    56  52  86 S5        29.93S
LEONARDTOWN*   CLOUDY    54  52  94 CALM      29.94F

$$

MDZ003>005-230400-
NORTH CENTRAL MARYLAND

CITY           SKY/WX    TMP DP  RH WIND       PRES   REMARKS
FREDERICK*     CLOUDY    46  46 100 CALM      29.93S
HAGERSTOWN APT CLOUDY    56  47  71 S6        29.88S
WESTMINSTER*   PTCLDY    52  46  82 CALM      29.91R

$$

MDZ501>502-230400-
WESTERN MARYLAND

CITY           SKY/WX    TMP DP  RH WIND       PRES   REMARKS
OAKLAND*       CLOUDY    50  48  93 SW5       29.91R
CUMBERLAND*    CLOUDY    61  45  55 CALM      29.90S

$$

VAZ025>031-230400-
SHENANDOAH VALLEY

CITY           SKY/WX    TMP DP  RH WIND       PRES   REMARKS
WINCHESTER*    CLOUDY    52  46  82 S3        29.88S
FRONT ROYAL*   CLOUDY    54  50  87 CALM      29.88S
LURAY*         CLOUDY    55  52  88 SW6       29.89S
NEW MARKET*    CLOUDY    55  49  81 W6        29.89S
STAUNTON*      CLOUDY    54  49  86 SW5       29.93S
WAYNESBORO*    PTCLDY    54  50  87 SW3       29.92R

$$

WVZ021-048>050-054>055-230400-
EASTERN WEST VIRGINIA PANHANDLE

CITY           SKY/WX    TMP DP  RH WIND       PRES   REMARKS
MARTINSBURG    MOCLDY    50  43  77 CALM      29.88R
PETERSBURG*    CLOUDY    62  52  68 S13       29.88S

$$

VAZ036>039-050-230400-
CENTRAL FOOTHILLS

CITY           SKY/WX    TMP DP  RH WIND       PRES   REMARKS
CHARLOTTESVILL MOCLDY    54  52  93 S8        29.90F
CULPEPER*      CLOUDY    56  54  93 S5        29.91F
ORANGE*        CLOUDY    55  52  88 CALM      29.92F
GORDONSVILLE*  CLOUDY    56  54  95 SW8       29.91S
WARRENTON*     CLOUDY    55  50  83 S3        29.90S

$$

VAZ055>057-230400-
NORTH AND CENTRAL PIEDMONT

CITY           SKY/WX    TMP DP  RH WIND       PRES   REMARKS
FREDERICKSBRG* MOCLDY    56  55  96 S5        29.91S
STAFFORD*      CLOUDY    54  53  98 CALM      29.95S

$$

NCZ024-NYZ072-PAZ021-071-VAZ022-071-230400-
OTHER REGIONAL OBSERVATIONS

CITY           SKY/WX    TMP DP  RH WIND       PRES   REMARKS
NEW YORK CITY  CLOUDY    50  41  71 CALM      29.93S
PHILADELPHIA   CLOUDY    46  42  86 CALM      29.92F
PITTSBURGH     MOCLDY    58  52  80 W6        29.86R
ROANOKE        FOG       52  52 100 CALM      29.95S VSB 1/2
RICHMOND       CLOUDY    54  53  97 S7        29.94F FOG
RALEIGH        CLOUDY    59  53  80 N3        29.95S

$$

ANZ530>537-230400-
MARINE OBSERVATIONS

STATION/POSITION TIME  TEMP    WIND        PRES
                       AIR SEA DIR/SP/G
                 (UTC) (F)     (DEG/KT/KT) (MB)
THOMAS PT LIGHT  0300   47 43  190/  9/ 10   N/A
BALT KEY BRIDGE  0248   47      CALM  /  1 1013.0F
COVE POINT       0218   48     180/  5/  6 1014.1S
LEWISETTA        0248   56 44  220/  8/ 10 1013.3S
SOLOMONS ISLAND  0248   51 44  110/  5/  5   N/A
PINEY POINT      0248          150/  3/  3   N/A

$$





USA.gov is the U.S. government's official web portal to all federal, state and local government web resources and services.